VOZ1725 YPPH-YPKA

Flight info

Callsign VOZ1725
Flight time 1h 50m
Altitude 37000
Route AVNEX5/21 AVNEX Y15 GUGRA Z55 KA
Aircraft B738/M-SDE2E3FGHIRWXY/LB1

Departure

Time 2026-04-27 05:47
Airport Perth International Airport (YPPH)

Arrival

Time 2026-04-27 07:37
Airport Karratha Airport (YPKA)
Time Latitude Longitude Altitude Speed Heading
2026-04-27 05:15 -31.94038 115.97023 63 ft 0 kts 184°
2026-04-27 05:35 -31.94034 115.97023 67 ft 3 kts 185°
2026-04-27 05:35 -31.94008 115.97027 64 ft 4 kts 188°
2026-04-27 05:36 -31.93981 115.97032 59 ft 4 kts 195°
2026-04-27 05:36 -31.93956 115.97043 61 ft 4 kts 212°
2026-04-27 05:36 -31.93940 115.97061 64 ft 4 kts 270°
2026-04-27 05:36 -31.93941 115.97072 63 ft 1 kts 285°
2026-04-27 05:40 -31.93937 115.97056 64 ft 3 kts 285°
2026-04-27 05:41 -31.93929 115.97017 58 ft 7 kts 284°
2026-04-27 05:41 -31.93915 115.96954 60 ft 9 kts 287°
2026-04-27 05:41 -31.93875 115.96906 63 ft 8 kts 343°
2026-04-27 05:41 -31.93819 115.96915 60 ft 8 kts 17°
2026-04-27 05:42 -31.93765 115.96935 64 ft 8 kts 15°
2026-04-27 05:42 -31.93711 115.96950 67 ft 9 kts 14°
2026-04-27 05:42 -31.93625 115.96975 65 ft 16 kts 14°
2026-04-27 05:42 -31.93520 115.97006 67 ft 15 kts 14°
2026-04-27 05:43 -31.93421 115.97035 63 ft 15 kts 14°
2026-04-27 05:43 -31.93324 115.97063 63 ft 14 kts 14°
2026-04-27 05:43 -31.93232 115.97090 62 ft 13 kts 12°
2026-04-27 05:43 -31.93144 115.97115 62 ft 13 kts 14°
2026-04-27 05:44 -31.93058 115.97140 60 ft 13 kts 13°
2026-04-27 05:44 -31.92974 115.97161 64 ft 12 kts 356°
2026-04-27 05:44 -31.92931 115.97090 62 ft 7 kts 283°
2026-04-27 05:44 -31.92930 115.97083 63 ft 1 kts 283°
2026-04-27 05:45 -31.92929 115.97077 67 ft 1 kts 283°
2026-04-27 05:45 -31.92924 115.97054 65 ft 7 kts 284°
2026-04-27 05:45 -31.92908 115.96978 64 ft 10 kts 283°
2026-04-27 05:45 -31.92892 115.96900 63 ft 10 kts 284°
2026-04-27 05:46 -31.92894 115.96829 62 ft 9 kts 212°
2026-04-27 05:46 -31.92961 115.96816 62 ft 13 kts 192°
2026-04-27 05:46 -31.93292 115.96720 57 ft 88 kts 194°
2026-04-27 05:46 -31.94119 115.96480 64 ft 155 kts 193°
2026-04-27 05:47 -31.95247 115.96169 686 ft 171 kts 192°
2026-04-27 05:47 -31.96402 115.95892 1743 ft 169 kts 194°
2026-04-27 05:47 -31.97618 115.95559 2258 ft 195 kts 196°
2026-04-27 05:47 -31.99018 115.95152 2651 ft 215 kts 197°
2026-04-27 05:48 -32.00487 115.94658 3128 ft 222 kts 208°
2026-04-27 05:48 -32.01652 115.93400 3273 ft 236 kts 249°
2026-04-27 05:48 -32.02142 115.91575 3969 ft 235 kts 256°
2026-04-27 05:48 -32.02444 115.89587 4291 ft 256 kts 276°
2026-04-27 05:49 -32.02091 115.87478 4799 ft 271 kts 284°
2026-04-27 05:49 -32.01654 115.85272 5455 ft 282 kts 282°
2026-04-27 05:49 -32.01279 115.83005 6162 ft 289 kts 279°
2026-04-27 05:49 -32.00985 115.80609 6746 ft 298 kts 278°
2026-04-27 05:50 -32.00730 115.78220 7759 ft 297 kts 278°
2026-04-27 05:50 -32.00486 115.75725 8233 ft 312 kts 278°
2026-04-27 05:50 -32.00177 115.73235 9376 ft 302 kts 281°
2026-04-27 05:50 -31.99805 115.70832 10470 ft 295 kts 283°
2026-04-27 05:51 -31.99029 115.68550 10879 ft 313 kts 305°
2026-04-27 05:51 -31.97374 115.66806 11399 ft 328 kts 330°
2026-04-27 05:51 -31.95221 115.66077 12445 ft 330 kts 349°
2026-04-27 05:51 -31.92892 115.66026 13202 ft 341 kts
2026-04-27 05:52 -31.90510 115.66456 13895 ft 351 kts
2026-04-27 05:52 -31.88081 115.66947 14483 ft 357 kts
2026-04-27 05:52 -31.85619 115.67430 15236 ft 360 kts
2026-04-27 05:52 -31.83137 115.67905 15955 ft 365 kts
2026-04-27 05:53 -31.80562 115.68379 16105 ft 385 kts
2026-04-27 05:53 -31.77865 115.68867 16230 ft 398 kts
2026-04-27 05:53 -31.75111 115.69365 16635 ft 402 kts
2026-04-27 05:53 -31.72396 115.69857 17262 ft 399 kts
2026-04-27 05:54 -31.69652 115.70353 17822 ft 399 kts
2026-04-27 05:54 -31.66896 115.70847 17986 ft 402 kts
2026-04-27 05:54 -31.64113 115.71344 18061 ft 407 kts
2026-04-27 05:54 -31.61307 115.71843 18496 ft 408 kts
2026-04-27 05:55 -31.58502 115.72344 18984 ft 407 kts
2026-04-27 05:55 -31.55695 115.72844 19416 ft 409 kts
2026-04-27 05:55 -31.52878 115.73345 19772 ft 412 kts
2026-04-27 05:55 -31.50070 115.73844 20126 ft 414 kts
2026-04-27 05:56 -31.47217 115.74351 20509 ft 416 kts
2026-04-27 05:56 -31.44352 115.74860 20922 ft 417 kts
2026-04-27 05:56 -31.41470 115.75372 21295 ft 419 kts
2026-04-27 05:56 -31.38578 115.75884 21655 ft 421 kts
2026-04-27 05:57 -31.35677 115.76398 22033 ft 423 kts
2026-04-27 05:57 -31.32758 115.76915 22408 ft 425 kts
2026-04-27 05:57 -31.29833 115.77433 22763 ft 427 kts
2026-04-27 05:57 -31.26894 115.77953 23102 ft 428 kts
2026-04-27 05:58 -31.23983 115.78467 23431 ft 430 kts
2026-04-27 05:58 -31.21017 115.78992 23744 ft 431 kts
2026-04-27 05:58 -31.18056 115.79516 24073 ft 431 kts
2026-04-27 05:58 -31.15088 115.80040 24336 ft 433 kts
2026-04-27 05:59 -31.12102 115.80566 24585 ft 435 kts
2026-04-27 05:59 -31.09102 115.81095 24854 ft 436 kts
2026-04-27 05:59 -31.06095 115.81625 25096 ft 438 kts
2026-04-27 05:59 -31.03076 115.82158 25355 ft 439 kts
2026-04-27 06:00 -30.97065 115.83216 25875 ft 441 kts
2026-04-27 06:00 -30.94021 115.83750 26057 ft 444 kts
2026-04-27 06:00 -30.90955 115.84288 26247 ft 446 kts
2026-04-27 06:01 -30.87884 115.84828 26493 ft 448 kts
2026-04-27 06:01 -30.84797 115.85369 26738 ft 449 kts
2026-04-27 06:01 -30.81706 115.85910 26963 ft 450 kts
2026-04-27 06:01 -30.78601 115.86357 27180 ft 450 kts
2026-04-27 06:02 -30.75488 115.86703 27461 ft 449 kts
2026-04-27 06:02 -30.72422 115.87001 27806 ft 447 kts
2026-04-27 06:02 -30.69331 115.87292 28175 ft 445 kts
2026-04-27 06:02 -30.66248 115.87586 28516 ft 444 kts
2026-04-27 06:03 -30.63177 115.87886 28841 ft 443 kts
2026-04-27 06:03 -30.60104 115.88193 29180 ft 443 kts
2026-04-27 06:03 -30.57041 115.88505 29536 ft 441 kts
2026-04-27 06:03 -30.53987 115.88820 29895 ft 440 kts
2026-04-27 06:04 -30.50943 115.89134 30216 ft 439 kts
2026-04-27 06:04 -30.47938 115.89445 30468 ft 439 kts
2026-04-27 06:04 -30.44891 115.89760 30709 ft 440 kts
2026-04-27 06:04 -30.41846 115.90074 30895 ft 441 kts
2026-04-27 06:05 -30.38775 115.90390 31064 ft 443 kts
2026-04-27 06:05 -30.35706 115.90706 31347 ft 443 kts
2026-04-27 06:05 -30.32646 115.91022 31755 ft 440 kts
2026-04-27 06:05 -30.29595 115.91337 32077 ft 439 kts
2026-04-27 06:06 -30.26555 115.91650 32314 ft 439 kts
2026-04-27 06:06 -30.23502 115.91964 32555 ft 440 kts
2026-04-27 06:06 -30.20500 115.92272 32838 ft 439 kts
2026-04-27 06:06 -30.17455 115.92584 33130 ft 438 kts
2026-04-27 06:07 -30.14412 115.92896 33330 ft 440 kts
2026-04-27 06:07 -30.11364 115.93208 33538 ft 440 kts
2026-04-27 06:07 -30.08316 115.93521 33819 ft 439 kts
2026-04-27 06:07 -30.05281 115.93832 34101 ft 437 kts
2026-04-27 06:08 -30.02254 115.94143 34313 ft 437 kts
2026-04-27 06:08 -29.99222 115.94453 34497 ft 437 kts
2026-04-27 06:08 -29.96193 115.94762 34694 ft 437 kts
2026-04-27 06:08 -29.93210 115.95066 34900 ft 436 kts
2026-04-27 06:09 -29.90186 115.95375 35047 ft 437 kts 360°
2026-04-27 06:09 -29.87153 115.95684 35150 ft 439 kts 360°
2026-04-27 06:09 -29.84112 115.95993 35354 ft 438 kts 360°
2026-04-27 06:09 -29.81081 115.96303 35602 ft 436 kts 359°
2026-04-27 06:10 -29.78062 115.96612 35817 ft 435 kts 359°
2026-04-27 06:10 -29.75045 115.96919 35979 ft 436 kts 359°
2026-04-27 06:10 -29.72025 115.97226 36135 ft 436 kts 359°
2026-04-27 06:10 -29.69047 115.97528 36318 ft 435 kts 359°
2026-04-27 06:11 -29.66032 115.97835 36511 ft 434 kts 359°
2026-04-27 06:11 -29.63023 115.98141 36638 ft 435 kts 358°
2026-04-27 06:11 -29.60006 115.98446 36755 ft 436 kts 358°
2026-04-27 06:11 -29.56989 115.98752 36924 ft 435 kts 358°
2026-04-27 06:12 -29.50939 115.99364 36988 ft 437 kts 358°
2026-04-27 06:12 -29.44930 115.99974 36979 ft 435 kts 358°
2026-04-27 06:13 -29.38930 116.00582 36989 ft 432 kts 358°
2026-04-27 06:13 -29.32971 116.01184 36974 ft 429 kts 358°
2026-04-27 06:14 -29.27044 116.01781 36980 ft 427 kts 358°
2026-04-27 06:14 -29.21167 116.02372 36978 ft 427 kts 358°
2026-04-27 06:15 -29.15250 116.02844 36977 ft 426 kts 356°
2026-04-27 06:15 -29.09318 116.03222 36967 ft 428 kts 355°
2026-04-27 06:16 -29.03361 116.03606 36969 ft 430 kts 356°
2026-04-27 06:16 -28.97409 116.04005 36970 ft 432 kts 356°
2026-04-27 06:17 -28.91390 116.04416 36964 ft 434 kts 356°
2026-04-27 06:17 -28.85351 116.04829 36935 ft 435 kts 355°
2026-04-27 06:18 -28.79307 116.05242 36952 ft 435 kts 355°
2026-04-27 06:18 -28.73264 116.05655 36956 ft 435 kts 355°
2026-04-27 06:19 -28.67263 116.06063 36946 ft 435 kts 355°
2026-04-27 06:19 -28.61236 116.06473 36961 ft 434 kts 355°
2026-04-27 06:20 -28.55207 116.06882 36941 ft 433 kts 355°
2026-04-27 06:20 -28.49202 116.07289 36945 ft 432 kts 355°
2026-04-27 06:21 -28.43217 116.07695 36938 ft 430 kts 355°
2026-04-27 06:21 -28.37292 116.08096 36940 ft 429 kts 355°
2026-04-27 06:22 -28.31347 116.08497 36923 ft 428 kts 355°
2026-04-27 06:22 -28.25419 116.08897 36929 ft 426 kts 355°
2026-04-27 06:23 -28.19502 116.09295 36941 ft 426 kts 355°
2026-04-27 06:23 -28.13586 116.09692 36941 ft 426 kts 355°
2026-04-27 06:24 -28.07713 116.10087 36945 ft 426 kts 355°
2026-04-27 06:24 -28.01789 116.10484 36942 ft 427 kts 355°
2026-04-27 06:25 -27.95850 116.10882 36940 ft 428 kts 355°
2026-04-27 06:25 -27.89896 116.11282 36938 ft 429 kts 355°
2026-04-27 06:26 -27.83930 116.11681 36938 ft 430 kts 355°
2026-04-27 06:26 -27.77997 116.12078 36936 ft 431 kts 355°
2026-04-27 06:27 -27.72019 116.12478 36928 ft 430 kts 355°
2026-04-27 06:27 -27.66040 116.12879 36931 ft 430 kts 355°
2026-04-27 06:28 -27.60069 116.13281 36932 ft 430 kts 355°
2026-04-27 06:28 -27.54142 116.13681 36934 ft 429 kts 355°
2026-04-27 06:29 -27.48183 116.14082 36923 ft 428 kts 354°
2026-04-27 06:29 -27.42236 116.14482 36929 ft 427 kts 354°
2026-04-27 06:30 -27.36307 116.14881 36933 ft 426 kts 354°
2026-04-27 06:30 -27.30390 116.15277 36933 ft 426 kts 354°
2026-04-27 06:31 -27.24527 116.15670 36929 ft 425 kts 354°
2026-04-27 06:31 -27.18633 116.16065 36929 ft 423 kts 354°
2026-04-27 06:32 -27.12759 116.16457 36929 ft 423 kts 354°
2026-04-27 06:32 -27.06886 116.16849 36928 ft 422 kts 354°
2026-04-27 06:33 -27.01069 116.17236 36931 ft 422 kts 354°
2026-04-27 06:33 -26.95211 116.17626 36908 ft 422 kts 354°
2026-04-27 06:34 -26.89360 116.18016 36917 ft 421 kts 354°
2026-04-27 06:34 -26.83518 116.18404 36932 ft 420 kts 354°
2026-04-27 06:35 -26.77675 116.18792 36927 ft 420 kts 354°
2026-04-27 06:35 -26.71877 116.19177 36931 ft 420 kts 354°
2026-04-27 06:36 -26.66042 116.19563 36915 ft 420 kts 353°
2026-04-27 06:36 -26.60206 116.19949 36918 ft 420 kts 353°
2026-04-27 06:37 -26.54375 116.20335 36926 ft 420 kts 353°
2026-04-27 06:37 -26.48577 116.20718 36923 ft 420 kts 353°
2026-04-27 06:38 -26.42744 116.21103 36923 ft 420 kts 353°
2026-04-27 06:38 -26.36906 116.21489 36918 ft 419 kts 353°
2026-04-27 06:39 -26.31078 116.21873 36920 ft 420 kts 353°
2026-04-27 06:39 -26.25252 116.22256 36925 ft 419 kts 353°
2026-04-27 06:40 -26.19465 116.22637 36918 ft 419 kts 353°
2026-04-27 06:40 -26.13645 116.23019 36922 ft 419 kts 353°
2026-04-27 06:41 -26.08060 116.23386 36915 ft 418 kts 353°
2026-04-27 06:41 -26.02254 116.23766 36919 ft 418 kts 353°
2026-04-27 06:42 -26.00668 116.23870 36920 ft 418 kts 353°
2026-04-27 06:42 -25.95603 116.24201 36921 ft 418 kts 353°
2026-04-27 06:43 -25.89840 116.24578 36921 ft 418 kts 352°
2026-04-27 06:43 -25.84038 116.24957 36890 ft 418 kts 353°
2026-04-27 06:44 -25.78241 116.25336 36909 ft 417 kts 353°
2026-04-27 06:44 -25.72447 116.25714 36919 ft 417 kts 353°
2026-04-27 06:45 -25.66699 116.26092 36903 ft 417 kts 353°
2026-04-27 06:45 -25.60879 116.26467 36917 ft 421 kts 353°
2026-04-27 06:46 -25.55002 116.26844 36901 ft 425 kts 353°
2026-04-27 06:46 -25.49085 116.27228 36912 ft 427 kts 354°
2026-04-27 06:47 -25.43136 116.27615 36927 ft 429 kts 354°
2026-04-27 06:47 -25.37170 116.28004 36917 ft 429 kts 354°
2026-04-27 06:48 -25.31250 116.28390 36913 ft 429 kts 354°
2026-04-27 06:48 -25.25309 116.28775 36917 ft 427 kts 354°
2026-04-27 06:49 -25.19382 116.29159 36916 ft 426 kts 354°
2026-04-27 06:49 -25.13473 116.29541 36911 ft 424 kts 354°
2026-04-27 06:50 -25.07631 116.29918 36911 ft 423 kts 353°
2026-04-27 06:50 -25.01765 116.30296 36909 ft 422 kts 353°
2026-04-27 06:51 -24.95911 116.30673 36901 ft 420 kts 354°
2026-04-27 06:51 -24.90075 116.31048 36913 ft 420 kts 354°
2026-04-27 06:52 -24.84237 116.31422 36915 ft 421 kts 354°
2026-04-27 06:52 -24.78426 116.31794 36920 ft 421 kts 354°
2026-04-27 06:53 -24.72565 116.32170 36914 ft 423 kts 354°
2026-04-27 06:53 -24.66687 116.32546 36908 ft 423 kts 354°
2026-04-27 06:54 -24.60792 116.32923 36914 ft 425 kts 354°
2026-04-27 06:54 -24.54929 116.33298 36920 ft 426 kts 354°
2026-04-27 06:55 -24.48998 116.33677 36919 ft 427 kts 354°
2026-04-27 06:55 -24.43055 116.34057 36917 ft 428 kts 354°
2026-04-27 06:56 -24.37104 116.34437 36913 ft 429 kts 354°
2026-04-27 06:56 -24.31147 116.34818 36919 ft 429 kts 354°
2026-04-27 06:57 -24.25189 116.35197 36917 ft 429 kts 354°
2026-04-27 06:57 -24.19268 116.35574 36911 ft 428 kts 354°
2026-04-27 06:58 -24.10350 116.36141 36897 ft 428 kts 354°
2026-04-27 06:59 -24.04411 116.36518 36908 ft 427 kts 354°
2026-04-27 06:59 -23.98480 116.36895 36912 ft 427 kts 354°
2026-04-27 07:00 -23.92558 116.37270 36912 ft 426 kts 354°
2026-04-27 07:00 -23.86678 116.37642 36920 ft 426 kts 354°
2026-04-27 07:01 -23.80762 116.37996 36913 ft 424 kts 353°
2026-04-27 07:01 -23.74873 116.38133 36914 ft 423 kts 352°
2026-04-27 07:02 -23.68978 116.38210 36918 ft 424 kts 352°
2026-04-27 07:02 -23.63072 116.38305 36921 ft 425 kts 352°
2026-04-27 07:03 -23.57196 116.38418 36917 ft 426 kts 352°
2026-04-27 07:03 -23.51269 116.38538 36912 ft 426 kts 353°
2026-04-27 07:04 -23.45333 116.38660 36911 ft 427 kts 353°
2026-04-27 07:04 -23.39379 116.38781 36905 ft 428 kts 353°
2026-04-27 07:05 -23.33428 116.38903 36906 ft 428 kts 353°
2026-04-27 07:05 -23.27461 116.39025 36905 ft 428 kts 353°
2026-04-27 07:06 -23.21507 116.39146 36894 ft 428 kts 353°
2026-04-27 07:06 -23.15595 116.39266 36901 ft 428 kts 353°
2026-04-27 07:07 -23.09639 116.39387 36894 ft 428 kts 353°
2026-04-27 07:07 -23.03675 116.39508 36898 ft 428 kts 353°
2026-04-27 07:08 -22.97787 116.39627 36903 ft 428 kts 353°
2026-04-27 07:08 -22.91866 116.39747 36891 ft 428 kts 353°
2026-04-27 07:09 -22.85907 116.39868 36898 ft 428 kts 353°
2026-04-27 07:09 -22.79947 116.39988 36898 ft 429 kts 353°
2026-04-27 07:10 -22.73981 116.40108 36893 ft 429 kts 353°
2026-04-27 07:10 -22.68006 116.40228 36900 ft 429 kts 353°
2026-04-27 07:11 -22.62071 116.40348 36894 ft 430 kts 353°
2026-04-27 07:11 -22.56091 116.40469 36901 ft 430 kts 353°
2026-04-27 07:12 -22.50081 116.40587 36511 ft 437 kts 353°
2026-04-27 07:12 -22.47052 116.40647 36052 ft 435 kts 353°
2026-04-27 07:12 -22.44036 116.40709 35513 ft 433 kts 354°
2026-04-27 07:12 -22.41023 116.40771 34866 ft 434 kts 354°
2026-04-27 07:13 -22.37991 116.40831 34203 ft 436 kts 354°
2026-04-27 07:13 -22.34952 116.40891 33473 ft 439 kts 354°
2026-04-27 07:13 -22.31892 116.40951 32747 ft 440 kts 354°
2026-04-27 07:13 -22.28865 116.41012 32040 ft 442 kts 355°
2026-04-27 07:14 -22.25786 116.41073 31320 ft 443 kts 355°
2026-04-27 07:14 -22.22688 116.41134 30558 ft 446 kts 355°
2026-04-27 07:14 -22.19577 116.41197 29802 ft 449 kts 355°
2026-04-27 07:14 -22.16468 116.41261 29186 ft 445 kts 355°
2026-04-27 07:15 -22.13384 116.41326 28605 ft 441 kts 356°
2026-04-27 07:15 -22.10326 116.41389 28027 ft 438 kts 356°
2026-04-27 07:15 -22.07298 116.41450 27470 ft 434 kts 356°
2026-04-27 07:15 -22.04287 116.41511 26930 ft 431 kts 356°
2026-04-27 07:16 -22.01302 116.41570 26392 ft 428 kts 356°
2026-04-27 07:16 -21.98370 116.41629 25857 ft 426 kts 356°
2026-04-27 07:16 -21.95414 116.41687 25308 ft 424 kts 356°
2026-04-27 07:17 -21.94564 116.41704 25155 ft 424 kts 356°
2026-04-27 07:17 -21.91620 116.41762 24609 ft 423 kts 357°
2026-04-27 07:17 -21.88681 116.41820 24067 ft 422 kts 357°
2026-04-27 07:17 -21.85752 116.41878 23522 ft 421 kts 357°
2026-04-27 07:18 -21.82821 116.41936 22893 ft 420 kts 357°
2026-04-27 07:18 -21.80891 116.41974 22527 ft 418 kts 358°
2026-04-27 07:18 -21.77017 116.42052 21803 ft 414 kts 358°
2026-04-27 07:18 -21.74141 116.42110 21272 ft 412 kts 358°
2026-04-27 07:19 -21.72250 116.42147 20926 ft 410 kts 358°
2026-04-27 07:19 -21.69408 116.42204 20387 ft 408 kts 358°
2026-04-27 07:19 -21.65668 116.42278 19694 ft 404 kts 358°
2026-04-27 07:19 -21.62862 116.42333 19174 ft 402 kts 358°
2026-04-27 07:20 -21.60072 116.42388 18653 ft 400 kts 358°
2026-04-27 07:20 -21.57293 116.42444 18124 ft 399 kts 359°
2026-04-27 07:20 -21.54523 116.42499 17548 ft 396 kts 359°
2026-04-27 07:20 -21.52705 116.42535 17198 ft 394 kts 359°
2026-04-27 07:21 -21.49973 116.42589 16671 ft 391 kts 359°
2026-04-27 07:21 -21.47262 116.42641 16167 ft 388 kts 359°
2026-04-27 07:21 -21.43703 116.42711 15506 ft 384 kts 359°
2026-04-27 07:21 -21.41904 116.42756 15173 ft 382 kts
2026-04-27 07:22 -21.39274 116.43152 14680 ft 382 kts 12°
2026-04-27 07:22 -21.36731 116.44029 14013 ft 387 kts 22°
2026-04-27 07:22 -21.33514 116.45665 13224 ft 386 kts 25°
2026-04-27 07:22 -21.31924 116.46498 12876 ft 384 kts 24°
2026-04-27 07:23 -21.29537 116.47748 12383 ft 379 kts 25°
2026-04-27 07:23 -21.27177 116.48978 11898 ft 375 kts 25°
2026-04-27 07:23 -21.24838 116.50190 11424 ft 371 kts 25°
2026-04-27 07:23 -21.22525 116.51382 10961 ft 367 kts 25°
2026-04-27 07:24 -21.20260 116.52545 10796 ft 355 kts 25°
2026-04-27 07:24 -21.18073 116.53665 10634 ft 343 kts 25°
2026-04-27 07:24 -21.15947 116.54753 10492 ft 333 kts 25°
2026-04-27 07:24 -21.13920 116.55789 10410 ft 321 kts 25°
2026-04-27 07:25 -21.11938 116.56802 10304 ft 311 kts 25°
2026-04-27 07:25 -21.10014 116.57784 10189 ft 302 kts 25°
2026-04-27 07:25 -21.08144 116.58739 10069 ft 293 kts 25°
2026-04-27 07:25 -21.06323 116.59669 9839 ft 290 kts 25°
2026-04-27 07:26 -21.04509 116.60594 9543 ft 288 kts 25°
2026-04-27 07:26 -21.02709 116.61512 9252 ft 286 kts 25°
2026-04-27 07:26 -21.00345 116.62718 8873 ft 283 kts 26°
2026-04-27 07:26 -20.99145 116.63330 8699 ft 281 kts 26°
2026-04-27 07:27 -20.97382 116.64229 8339 ft 281 kts 26°
2026-04-27 07:27 -20.95607 116.65134 7772 ft 290 kts 27°
2026-04-27 07:27 -20.93794 116.66059 7363 ft 286 kts 27°
2026-04-27 07:27 -20.92026 116.66958 7104 ft 276 kts 26°
2026-04-27 07:28 -20.90335 116.67820 6979 ft 262 kts 26°
2026-04-27 07:28 -20.88713 116.68645 6866 ft 254 kts 27°
2026-04-27 07:28 -20.87139 116.69447 6733 ft 247 kts 26°
2026-04-27 07:28 -20.85601 116.70230 6556 ft 242 kts 26°
2026-04-27 07:29 -20.84087 116.71000 6384 ft 242 kts 27°
2026-04-27 07:29 -20.82546 116.71785 6088 ft 251 kts 26°
2026-04-27 07:29 -20.80924 116.72558 5685 ft 259 kts 18°
2026-04-27 07:29 -20.79122 116.72627 5369 ft 264 kts 349°
2026-04-27 07:30 -20.77480 116.71760 5088 ft 269 kts 322°
2026-04-27 07:30 -20.76381 116.70167 4777 ft 276 kts 294°
2026-04-27 07:30 -20.76145 116.68151 4654 ft 274 kts 263°
2026-04-27 07:30 -20.76751 116.66269 4467 ft 264 kts 244°
2026-04-27 07:31 -20.77570 116.64564 4316 ft 253 kts 244°
2026-04-27 07:31 -20.78357 116.62931 4170 ft 241 kts 248°
2026-04-27 07:31 -20.78567 116.61237 4026 ft 226 kts 286°
2026-04-27 07:31 -20.77897 116.59790 3851 ft 212 kts 315°
2026-04-27 07:32 -20.76778 116.58858 3648 ft 199 kts 338°
2026-04-27 07:32 -20.75479 116.58458 3397 ft 192 kts 358°
2026-04-27 07:32 -20.74214 116.58621 3148 ft 185 kts 29°
2026-04-27 07:32 -20.73339 116.59567 2964 ft 180 kts 63°
2026-04-27 07:33 -20.73031 116.60849 2777 ft 175 kts 80°
2026-04-27 07:33 -20.72892 116.62107 2559 ft 168 kts 81°
2026-04-27 07:33 -20.72766 116.63344 2372 ft 168 kts 81°
2026-04-27 07:33 -20.72641 116.64573 2181 ft 166 kts 82°
2026-04-27 07:34 -20.72517 116.65777 2000 ft 162 kts 81°
2026-04-27 07:34 -20.72393 116.66971 1854 ft 161 kts 81°
2026-04-27 07:34 -20.72269 116.68165 1631 ft 160 kts 81°
2026-04-27 07:34 -20.72147 116.69344 1405 ft 160 kts 81°
2026-04-27 07:35 -20.72023 116.70531 1220 ft 161 kts 82°
2026-04-27 07:35 -20.71906 116.71699 980 ft 159 kts 81°
2026-04-27 07:35 -20.71787 116.72895 822 ft 161 kts 80°
2026-04-27 07:35 -20.71632 116.74071 604 ft 162 kts 79°
2026-04-27 07:36 -20.71523 116.75244 356 ft 155 kts 82°
2026-04-27 07:36 -20.71407 116.76372 106 ft 150 kts 82°
2026-04-27 07:36 -20.71298 116.77418 35 ft 130 kts 85°
2026-04-27 07:36 -20.71226 116.78142 36 ft 66 kts 84°
2026-04-27 07:37 -20.71201 116.78389 35 ft 20 kts 83°
2026-04-27 07:37 -20.71178 116.78514 34 ft 2 kts 115°
2026-04-27 07:37 -20.71191 116.78508 33 ft 4 kts 223°
2026-04-27 07:37 -20.71194 116.78467 34 ft 6 kts 271°
2026-04-27 07:38 -20.71197 116.78419 35 ft 8 kts 263°
2026-04-27 07:38 -20.71208 116.78330 35 ft 13 kts 263°
2026-04-27 07:38 -20.71213 116.78232 33 ft 13 kts 281°
2026-04-27 07:38 -20.71138 116.78187 35 ft 14 kts 355°
2026-04-27 07:39 -20.71052 116.78159 34 ft 13 kts 304°
2026-04-27 07:39 -20.71051 116.78064 33 ft 13 kts 264°
2026-04-27 07:39 -20.71062 116.77970 33 ft 13 kts 263°
2026-04-27 07:39 -20.71071 116.77879 32 ft 12 kts 264°
2026-04-27 07:40 -20.71080 116.77790 34 ft 12 kts 263°
2026-04-27 07:40 -20.71089 116.77703 34 ft 12 kts 264°
2026-04-27 07:40 -20.71100 116.77595 32 ft 20 kts 264°
2026-04-27 07:40 -20.71116 116.77431 33 ft 23 kts 264°
2026-04-27 07:41 -20.71133 116.77273 33 ft 15 kts 263°
2026-04-27 07:41 -20.71100 116.77232 33 ft 7 kts 348°
2026-04-27 07:41 -20.71052 116.77225 33 ft 7 kts 352°
2026-04-27 07:41 -20.71007 116.77211 33 ft 7 kts 350°
2026-04-27 07:42 -20.70990 116.77188 33 ft 2 kts 269°
2026-04-27 07:42 -20.70990 116.77185 33 ft 0 kts 270°
2026-04-27 07:42 -20.70989 116.77178 33 ft 0 kts 264°